This is the latest recevied weather packets stored in our database for station/object NE1CU. If no packets are shown the sender has not sent any weather packets the latest 10 day(s).
| Time | Temp. | Humidity | Pressure | Rain* | Wind** | Luminosity | Snow |
|---|---|---|---|---|---|---|---|
| 1777998064 | 22.78° C | 55% | 1010.4 hPa | 0 mm | - | 930 W/m² | - |
| 1777997761 | 22.78° C | 56% | 1010.6 hPa | 0 mm | - | 925 W/m² | - |
| 1777997458 | 22.78° C | 56% | 1010.6 hPa | 0 mm | - | 924 W/m² | - |
| 1777997156 | 22.78° C | 55% | 1010.5 hPa | 0 mm | - | 921 W/m² | - |
| 1777996853 | 22.78° C | 54% | 1010.6 hPa | 0 mm | - | 914 W/m² | - |
| 1777996549 | 22.78° C | 57% | 1010.7 hPa | 0 mm | - | 907 W/m² | - |
| 1777996245 | 22.78° C | 55% | 1010.5 hPa | 0 mm | - | 902 W/m² | - |
| 1777995942 | 23.33° C | 56% | 1010.4 hPa | 0 mm | - | 899 W/m² | - |
| 1777995638 | 23.33° C | 54% | 1010.7 hPa | 0 mm | - | 888 W/m² | - |
| 1777995335 | 23.33° C | 55% | 1010.8 hPa | 0 mm | - | 878 W/m² | - |
| 1777995032 | 22.78° C | 53% | 1011 hPa | 0 mm | - | 871 W/m² | - |
| 1777994729 | 22.78° C | 55% | 1011 hPa | 0 mm | - | 864 W/m² | - |
| 1777994425 | 22.78° C | 56% | 1011.1 hPa | 0 mm | - | 854 W/m² | - |
| 1777994120 | 22.22° C | 57% | 1011.3 hPa | 0 mm | - | 850 W/m² | - |
| 1777993818 | 22.22° C | 56% | 1011.3 hPa | 0 mm | - | 835 W/m² | - |
| 1777993514 | 22.22° C | 55% | 1011.3 hPa | 0 mm | - | 825 W/m² | - |
| 1777993210 | 21.67° C | 55% | 1011.4 hPa | 0 mm | - | 817 W/m² | - |
| 1777992906 | 21.67° C | 55% | 1011 hPa | 0 mm | - | 806 W/m² | - |
| 1777992605 | 21.67° C | 57% | 1011.1 hPa | 0 mm | - | 797 W/m² | - |
| 1777992302 | 21.11° C | 56% | 1011 hPa | 0 mm | - | 784 W/m² | - |
| 1777991999 | 21.11° C | 57% | 1011.2 hPa | 0 mm | - | 772 W/m² | - |
| 1777991697 | 21.11° C | 58% | 1011.4 hPa | 0 mm | - | 764 W/m² | - |
| 1777991394 | 20.56° C | 58% | 1011.1 hPa | 0 mm | - | 749 W/m² | - |
| 1777991091 | 20° C | 60% | 1011.1 hPa | 0 mm | - | 738 W/m² | - |
| 1777990788 | 20.56° C | 58% | 1011 hPa | 0 mm | - | 726 W/m² | - |
* Rain latest hour (hover to see other rain measurements)
** Current wind speed in m/s (hover to see current wind gust speed)